EYKAEYPA

Guest
Details From EYKA - Kaunas Intl
To EYPA - PALANGA INTL
Flight Number -
Tags generated
Created
Modified
Stats Distance 118 nm / 219 km
Max Altitude 12,900 ft / 3,932 m
Waypoints 3
Social Downloads 0
Likes 0
Share VATSIM

Download

Looking for another format? Having issues loading an existing format? Contact us
Advertisement - Login to hide

Notes

Basic altitude profile: - Ascent Rate: 2500ft/min - Ascent Speed: 250kts - Cruise Altitude: 35000ft - Cruise Speed: 420kts - Descent Rate: 1500ft/min - Descent Speed: 250kts Options: - Use NATs: yes - Use PACOTS: yes - Use low airways: no - Use high airways: yes

Route

EYKA TOTRA EYPA

ID Type Via Altitude Latitude Longitude Leg Dist Tot Dist Heading (true) Name
O EYKA APT - 0 ft / 0 m 54.96388˚ 24.08400˚ - 0 nm - Kaunas Intl
TOTRA FIX - 12,900 ft / 3,932 m 55.44306˚ 22.77111˚ 53 nm 53 nm 303° / 302° -
O EYPA APT - 0 ft / 0 m 55.97312˚ 21.09381˚ 65 nm 118 nm 300° / 299° PALANGA INTL

Altitude Profile

Advertisement - Login to hide

EYKA

Details ICAO EYKA (KUN)
Name Kaunas Intl
Region Lithuania
Timezone Europe/Vilnius (UTC+3.0)
Stats Elevation 256 ft / 78 m (AMSL)
Location 54.963881° 24.084001°
Runways 1
Magnetic Variation 7.270° E

METAR

EYKA 271150Z 22005KT 160V280 CAVOK 26/09 Q1025

Decode

TAF

TAF EYKA 271107Z 2712/2812 VRB05KT CAVOK= �

Decode

Departure Runways

ID Width Length Bearing (true) Bearing (mag) Surface Threshold Offset Overrun Length
08 148 ft / 45 m 10,309 ft / 3,142 m 85.05° 77.78° Asphalt 1,116 ft / 340 m 240 ft / 73 m
26 148 ft / 45 m 10,309 ft / 3,142 m 265.09° 257.82° Asphalt 789 ft / 240 m 240 ft / 73 m

EYPA

Details ICAO EYPA (PLQ)
Name PALANGA INTL
Region Lithuania
Timezone Europe/Vilnius (UTC+3.0)
Stats Elevation 33 ft / 10 m (AMSL)
Location 55.973115° 21.093811°
Runways 1
Magnetic Variation 6.589° E

METAR

EYPA 271150Z 30004KT 220V360 CAVOK 20/15 Q1025

Decode

TAF

TAF EYPA 271108Z 2712/2812 VRB05KT 9000 SCT045

Decode

Destination Runways

ID Width Length Bearing (true) Bearing (mag) Surface Threshold Offset Overrun Length
01 131 ft / 40 m 6,473 ft / 1,973 m 12.70° 6.11° Asphalt 0 ft / 0 m 0 ft / 0 m
19 131 ft / 40 m 6,473 ft / 1,973 m 192.71° 186.12° Asphalt 0 ft / 0 m 0 ft / 0 m

Approach Navaids

Runway Type Ident Frequency Range Bearing (true) Bearing (mag) Slope Elevation
19 Localiser IAN 110.10 MHz 18 nm / 33 km 192.71° 186.12° - 33 ft / 10 m (AMSL)
19 Glidescope IAN 110.10 MHz 10 nm / 19 km 192.71° 186.12° 3.00° 33 ft / 10 m (AMSL)
19 DME IAN 110.10 MHz 18 nm / 33 km - - - 39 ft / 12 m (AMSL)

Popular Alternatives